EW2664 Weather Reports


Display with metric or nautical units.
time (UTC)temp
F
wind
direction
speed
MPH
gust
MPH
rain 1hr
in
rain 24hr
in
rain mn
in
humidity
%
barometer
mb
20260510061528 79 23 0.0 2.0 0.00 0.00 0.00 80 1014.9
20260510060011 80 259 0.0 0.0 0.00 0.00 0.00 79 1015.0
20260510054516 80 259 0.0 0.0 0.00 0.00 0.00 78 1015.0
20260510053015 80 259 0.0 0.0 0.00 0.00 0.00 77 1015.1
20260510051506 81 259 0.0 0.0 0.00 0.00 0.00 76 1015.1
20260510050012 81 259 0.0 0.0 0.00 0.00 0.00 75 1015.2
20260510044517 81 259 0.0 0.0 0.00 0.00 0.00 74 1015.4
20260510043037 81 259 0.0 2.0 0.00 0.00 0.00 73 1015.3
20260510041508 82 259 0.0 0.0 0.00 0.00 0.00 72 1015.4
20260510040010 82 259 0.0 1.0 0.00 0.00 0.00 71 1015.4
20260510034516 82 259 0.0 2.0 0.00 0.00 0.00 71 1015.3
20260510033020 82 259 0.0 2.0 0.00 0.00 0.00 71 1015.3
20260510031527 82 272 0.0 2.0 0.00 0.00 0.00 70 1015.2
20260510030009 82 211 0.0 2.0 0.00 0.00 0.00 70 1015.1
20260510024514 83 215 0.0 2.0 0.00 0.00 0.00 69 1015.0
20260510023016 83 317 0.0 2.0 0.00 0.00 0.00 69 1014.8
20260510021536 83 317 0.0 2.0 0.00 0.00 0.00 68 1014.6
20260510020006 83 230 0.0 2.0 0.00 0.00 0.00 68 1014.5
20260510014507 84 252 0.0 2.0 0.00 0.00 0.00 68 1014.2
20260510013022 84 279 0.0 2.0 0.00 0.00 0.00 69 1014.2
20260510011525 84 286 0.0 2.0 0.00 0.00 0.00 68 1013.9
20260510010022 84 147 0.0 2.0 0.00 0.00 0.00 68 1013.7
20260510004507 85 109 0.0 2.0 0.00 0.00 0.00 66 1013.3
20260510003013 85 161 0.0 2.0 0.00 0.00 0.00 64 1013.0
20260510001519 85 109 0.0 2.0 0.00 0.00 0.00 67 1012.6
20260510000028 85 248 0.0 2.0 0.00 0.00 0.00 66 1012.4
20260509234526 86 98 1.0 2.0 0.00 0.00 0.00 66 1012.2
20260509233012 87 192 1.0 2.0 0.00 0.00 0.00 66 1012.2
20260509231517 87 111 1.0 2.0 0.00 0.00 0.00 65 1012.3
20260509230021 88 229 0.0 2.0 0.00 0.00 0.00 62 1012.1
20260509224525 89 138 0.0 2.0 0.00 0.00 0.00 60 1011.8
20260509223011 90 126 1.0 3.0 0.00 0.00 0.00 58 1011.7
20260509221514 91 184 0.0 3.0 0.00 0.00 0.00 56 1011.8
20260509220021 91 178 1.0 3.0 0.00 0.00 0.00 54 1011.9
20260509214524 92 179 0.0 2.0 0.00 0.00 0.00 53 1011.7
20260509213031 92 174 1.0 3.0 0.00 0.00 0.00 54 1011.7
20260509211512 92 118 1.0 3.0 0.00 0.00 0.00 54 1011.7
20260509210018 92 230 0.0 4.0 0.00 0.00 0.00 56 1011.7
20260509204523 93 66 1.0 3.0 0.00 0.00 0.00 56 1011.8
20260509203010 94 265 1.0 5.0 0.00 0.00 0.00 55 1012.0
20260509201509 95 213 1.0 2.0 0.00 0.00 0.00 54 1012.0
20260509200018 95 250 0.0 2.0 0.00 0.00 0.00 55 1012.1
20260509194524 95 92 1.0 3.0 0.00 0.00 0.00 54 1012.1
20260509193004 94 123 1.0 3.0 0.00 0.00 0.00 55 1012.2
20260509191510 97 138 1.0 3.0 0.00 0.00 0.00 51 1012.3
20260509190012 97 185 1.0 3.0 0.00 0.00 0.00 50 1012.3
20260509184531 96 112 0.0 2.0 0.00 0.00 0.00 48 1012.5
20260509183031 96 66 0.0 2.0 0.00 0.00 0.00 47 1012.9
20260509181508 96 205 1.0 3.0 0.00 0.00 0.00 49 1013.2
20260509180015 95 200 1.0 4.0 0.00 0.00 0.00 50 1013.5
20260509174522 94 237 1.0 2.0 0.00 0.00 0.00 50 1013.6
20260509173022 94 200 1.0 2.0 0.00 0.00 0.00 50 1013.7
20260509171526 93 220 0.0 4.0 0.00 0.00 0.00 53 1013.9
20260509170011 93 233 0.0 3.0 0.00 0.00 0.00 53 1013.9
20260509164517 94 163 0.0 2.0 0.00 0.00 0.00 48 1014.2
20260509163031 93 119 0.0 6.0 0.00 0.00 0.00 51 1014.4
20260509161523 92 238 0.0 2.0 0.00 0.00 0.00 49 1014.4
20260509160009 92 188 0.0 2.0 0.00 0.00 0.00 54 1014.5
20260509154512 90 296 0.0 4.0 0.00 0.00 0.00 57 1014.5
20260509153042 89 260 0.0 2.0 0.00 0.00 0.00 61 1014.5
20260509151522 89 287 0.0 2.0 0.00 0.00 0.00 62 1014.6
20260509150025 89 321 0.0 5.0 0.00 0.00 0.00 62 1014.7
20260509144510 89 177 0.0 2.0 0.00 0.00 0.00 65 1014.7
20260509143018 88 234 0.0 3.0 0.00 0.00 0.00 65 1014.6
20260509141522 88 241 0.0 2.0 0.00 0.00 0.00 68 1014.5
20260509140023 87 186 0.0 2.0 0.00 0.00 0.00 71 1014.3
20260509134526 86 263 0.0 0.0 0.00 0.00 0.00 72 1014.4
20260509133013 85 218 0.0 1.0 0.00 0.00 0.00 74 1014.3
20260509131521 84 130 0.0 2.0 0.00 0.00 0.00 76 1014.4
20260509130035 83 95 0.0 1.0 0.00 0.00 0.00 76 1014.3
20260509124530 82 132 0.0 1.0 0.00 0.00 0.00 78 1014.2
20260509123017 81 88 0.0 0.0 0.00 0.00 0.00 79 1014.3
20260509121524 79 94 0.0 0.0 0.00 0.00 0.00 80 1014.4
20260509120024 78 34 0.0 1.0 0.00 0.00 0.00 81 1014.3
20260509114524 76 36 0.0 0.0 0.00 0.00 0.00 84 1014.4
20260509113027 74 360 0.0 0.0 0.00 0.00 0.00 86 1014.3
20260509111520 74 360 0.0 0.0 0.00 0.00 0.00 87 1014.2
20260509110023 73 360 0.0 0.0 0.00 0.00 0.00 89 1014.1
20260509104524 73 360 0.0 0.0 0.00 0.00 0.00 88 1013.9
20260509103026 73 352 0.0 0.0 0.00 0.00 0.00 88 1013.8
20260509101546 73 352 0.0 0.0 0.00 0.00 0.00 88 1013.8
20260509100025 73 360 0.0 0.0 0.00 0.00 0.00 88 1013.8
20260509094525 73 360 0.0 0.0 0.00 0.00 0.00 88 1013.6
20260509093027 73 31 0.0 0.0 0.00 0.00 0.00 89 1013.7
20260509091527 74 273 0.0 0.0 0.00 0.00 0.00 89 1013.6
20260509090032 74 271 0.0 2.0 0.00 0.00 0.00 88 1013.5
20260509084526 74 338 0.0 2.0 0.00 0.00 0.00 88 1013.5
20260509083038 74 284 0.0 0.0 0.00 0.00 0.00 88 1013.5
20260509081512 75 273 0.0 2.0 0.00 0.00 0.00 88 1013.5
20260509080021 76 294 0.0 2.0 0.00 0.00 0.00 87 1013.4
20260509074521 77 252 0.0 2.0 0.00 0.00 0.00 87 1013.5
20260509073004 77 184 0.0 0.0 0.00 0.00 0.00 87 1013.6
20260509071511 77 136 0.0 0.0 0.00 0.00 0.00 87 1013.6
20260509070016 77 136 0.0 0.0 0.00 0.00 0.00 87 1013.7
20260509064522 78 136 0.0 0.0 0.00 0.00 0.00 86 1013.7
20260509063025 78 136 0.0 0.0 0.00 0.00 0.00 86 1013.8